Location: Beranovka
(49.9415°N, 12.8435°E)
Time: 23:54:23
(UTC+00:00)

COSMOS 2428 - Pass Details

Date: 10 August 2020
Orbit: 844 x 859 km, 70.9° (Epoch: 23 September)

Event Time Altitude Azimuth Distance (km) Brightness Sun altitude
Rises 21:47:47 0° 332° (NNW) 3,434 7.4 -22.1°
Reaches altitude 10° 21:50:22 10° 339° (NNW) 2,497 6.3 -22.3°
Maximum altitude 21:55:51 44° 52° (NE) 1,174 3.5 -22.6°
Enters shadow 21:58:10 30° 102° (ESE) 1,503 3.7 -22.7°
